Wind_Speed
11 11 11 11 10 11 11 12 12 12 13 13 13 13 13 13 13 13 13 13 13 12 11 10 9 8 8 9 10 11 11 11 10 7 8 11 13 13 13 8 5 14 15 10 11 11 8 4 4 6 4 2 0 0 1 1 1 2 3 2 2 2 3 4 6 5 3 3 4 5 6 6 3 3 1 2 3 2 2 2 1 2 2 7 12 20 24 23
11 12 12 11 10 10 11 12 12 13 13 13 13 13 13 13 13 14 14 14 13 11 10 9 8 7 8 8 10 10 10 10 8 9 12 10 6 7 10 10 7 15 20 13 11 11 7 2 5 7 4 1 1 1 1 1 2 2 3 1 3 4 4 4 7 6 3 3 5 4 4 4 4 4 2 1 1 2 3 1 2 4 4 10 16 22 23 23
12 12 12 11 11 11 11 12 13 13 12 13 13 13 13 13 14 14 15 15 14 12 10 9 7 7 7 8 8 8 8 6 4 7 8 5 7 8 6 9 9 15 19 13 9 8 7 7 11 7 3 1 2 1 1 1 2 2 3 1 6 6 4 3 7 7 4 5 7 3 2 2 3 2 2 2 3 2 4 3 2 5 6 10 14 19 21 20
13 13 12 12 12 12 12 13 13 13 12 12 13 13 13 13 14 15 16 16 14 12 10 7 6 7 6 7 6 6 6 2 2 4 2 2 4 7 10 12 10 13 15 10 7 8 8 9 10 4 3 0 3 2 2 3 3 2 4 5 6 3 3 4 7 6 3 6 8 5 3 2 3 0 1 4 4 2 5 6 6 8 10 12 13 16 19 18
14 13 13 13 13 13 13 13 13 13 13 12 12 13 13 13 14 15 16 16 14 11 8 6 5 5 5 5 4 4 3 2 2 4 2 2 1 7 15 13 11 13 13 11 9 9 8 6 5 3 3 1 2 2 3 5 4 1 4 6 5 2 2 3 4 4 4 6 7 6 5 3 1 0 2 6 5 4 6 7 8 8 12 14 15 16 16 15
14 14 14 14 14 14 14 14 14 14 13 12 12 12 13 13 14 14 16 15 12 10 7 4 4 4 3 3 3 2 1 1 3 4 4 2 1 9 17 15 11 11 12 12 10 8 6 4 4 3 2 1 2 2 5 4 5 2 4 4 5 4 3 2 4 3 3 7 7 7 4 3 4 2 3 6 7 5 4 5 8 6 11 16 16 15 14 14
14 14 14 14 15 15 15 15 15 14 13 12 12 12 12 12 13 14 15 13 11 9 4 3 3 3 2 2 2 2 2 3 6 4 6 3 2 12 17 17 13 10 11 11 8 5 5 5 3 3 3 1 2 4 5 3 4 5 4 5 4 4 3 1 4 3 2 5 6 5 4 5 6 3 1 5 9 5 5 3 8 6 11 15 14 14 14 14
14 14 15 15 16 16 16 16 16 15 14 13 12 11 11 11 12 14 14 12 10 6 2 2 2 1 1 1 1 3 1 4 5 4 7 3 4 14 17 16 15 11 10 10 8 6 4 4 3 3 3 2 2 2 4 3 1 5 4 4 1 1 1 3 5 3 3 1 0 5 5 5 6 3 2 6 10 5 3 3 8 7 10 12 13 14 13 13
14 15 15 16 16 17 17 17 17 16 15 14 12 11 10 10 11 13 12 10 8 3 2 2 1 0 0 1 2 2 2 3 2 2 5 2 5 14 17 15 16 13 10 9 9 8 5 4 4 3 2 3 1 4 4 5 2 3 3 4 2 2 2 4 5 4 4 2 1 3 4 2 2 1 1 7 7 2 1 4 7 7 10 11 11 12 12 12
15 15 16 17 17 17 17 17 17 17 16 15 13 10 9 9 11 11 10 8 5 2 1 1 2 1 0 0 3 2 2 3 2 2 3 2 6 15 17 14 16 15 10 9 9 9 6 4 4 4 3 2 1 4 1 3 3 2 1 1 3 2 1 4 5 4 3 0 1 3 4 3 1 1 3 6 3 5 5 5 5 6 9 10 10 10 11 12
15 16 17 17 18 18 18 18 18 17 17 16 13 10 8 8 10 9 7 6 3 1 1 2 2 1 1 2 4 2 2 4 0 2 2 2 6 15 17 15 16 16 11 7 9 12 8 5 3 3 2 1 2 3 2 3 4 2 2 2 5 4 2 3 4 3 2 1 3 4 2 3 3 0 5 5 3 7 7 6 5 5 7 8 9 9 8 10
16 17 18 18 18 19 19 19 18 17 17 16 13 9 7 8 8 7 5 4 2 2 2 2 2 0 2 2 3 4 4 4 1 2 2 2 4 10 14 13 14 16 14 7 9 15 12 6 3 1 2 1 1 3 2 3 3 2 4 2 5 7 4 1 2 4 3 2 4 5 1 4 1 6 7 3 4 7 8 8 5 5 5 5 7 7 6 8
17 18 18 18 19 20 20 19 19 18 17 16 13 8 7 7 6 5 3 2 1 2 2 2 1 1 2 0 3 3 4 2 1 3 3 3 3 7 11 11 10 13 14 9 6 10 12 10 4 3 3 3 1 2 1 3 2 1 2 3 2 7 5 5 2 5 4 2 3 5 2 6 6 10 7 2 5 8 7 7 6 4 4 4 5 5 5 6
18 18 18 19 20 20 20 20 19 18 16 15 12 7 6 5 3 2 1 1 2 2 2 2 1 2 1 3 3 3 4 2 3 6 6 4 3 6 10 9 8 11 14 12 7 3 6 8 6 3 2 3 2 2 3 6 3 2 2 2 2 2 4 7 0 6 4 1 3 5 1 6 8 10 7 2 6 9 8 8 7 5 4 4 4 4 5 5
18 18 19 19 20 20 20 20 19 17 16 15 10 6 5 2 0 0 1 2 3 3 3 2 3 2 1 4 4 2 3 3 6 10 8 6 5 5 10 10 8 11 12 12 9 5 4 4 3 1 2 1 3 3 3 4 3 3 1 3 3 2 4 9 3 7 6 0 3 4 2 6 7 8 5 4 7 8 9 8 7 7 5 5 4 4 5 5
18 18 19 19 20 20 20 20 19 17 15 13 9 4 1 1 2 2 2 3 5 5 3 2 4 3 2 2 1 1 2 4 6 9 10 9 7 3 8 10 5 7 10 10 7 7 6 1 2 1 1 2 5 4 3 4 4 4 1 2 2 2 3 6 3 2 4 2 1 3 2 4 3 2 5 1 8 7 7 8 9 8 7 6 5 4 5 5
19 19 19 19 19 19 19 19 18 16 14 12 6 2 1 2 2 3 3 5 6 4 3 2 3 3 0 2 0 1 4 6 6 8 12 13 10 4 5 6 3 3 5 5 3 3 2 1 1 0 3 3 3 3 3 3 3 4 2 1 3 2 2 4 4 2 3 3 2 2 3 7 6 2 6 0 7 8 7 9 9 9 7 6 5 5 5 5
19 19 19 19 19 19 19 18 17 15 13 9 2 2 3 4 4 4 4 5 5 3 2 1 2 2 1 2 1 2 4 5 6 7 11 12 12 7 1 2 3 4 3 2 1 2 1 2 2 1 3 4 3 5 2 3 2 1 2 3 3 3 3 5 4 2 4 3 2 2 5 12 12 6 3 1 5 8 9 8 8 8 7 6 6 6 6 6
21 20 19 19 18 18 17 16 15 14 11 5 3 5 5 5 4 3 3 3 2 0 0 1 1 2 2 3 3 4 7 4 4 6 10 10 9 7 1 3 4 4 4 1 2 3 2 2 3 1 3 1 2 4 6 6 5 4 2 1 3 5 6 7 5 5 6 5 4 6 7 12 12 8 3 3 5 8 8 6 5 6 5 5 5 6 6 7
22 21 19 18 17 17 15 14 13 13 10 1 6 6 5 2 2 1 1 1 4 3 2 3 5 1 3 4 3 6 6 1 3 4 10 10 7 5 1 4 5 5 3 2 1 2 3 1 2 5 7 5 6 6 6 6 4 3 1 3 5 4 8 8 4 5 5 6 5 8 8 11 11 9 5 3 5 7 8 7 7 6 6 6 7 7 8 8
22 21 19 18 17 16 13 12 11 12 9 3 8 4 2 2 2 1 3 3 6 6 5 4 5 4 6 5 4 4 3 1 1 0 7 10 7 6 1 3 5 2 2 2 1 3 4 1 6 8 8 6 6 5 4 3 1 0 2 4 5 4 8 9 3 4 5 5 5 5 6 12 14 11 5 3 6 8 10 10 9 8 7 6 7 8 8 6
22 21 19 17 15 14 11 10 10 9 5 5 7 2 2 2 4 2 1 2 7 5 6 4 2 6 7 6 7 1 3 2 2 2 5 8 5 3 1 4 5 2 2 2 2 5 4 3 11 8 4 3 4 6 5 3 2 2 2 1 5 4 5 8 5 2 2 4 4 4 6 11 12 10 6 5 7 6 7 9 8 7 7 7 8 8 7 5
22 20 18 16 14 12 10 9 8 5 0 4 5 3 0 1 3 1 3 1 6 3 3 3 3 5 4 4 7 6 3 2 3 3 7 9 3 3 4 5 4 3 2 2 4 2 0 5 8 4 6 4 3 4 6 2 2 3 3 2 5 4 1 5 5 4 1 1 2 4 4 7 8 7 6 5 6 3 3 6 6 6 8 8 8 7 7 7
21 19 17 14 13 10 8 8 5 1 0 2 4 2 3 4 5 6 0 1 4 4 2 5 4 4 3 2 7 9 3 3 4 3 10 12 4 3 5 4 5 3 2 4 7 4 6 6 2 2 6 6 4 3 6 3 3 4 6 6 7 8 6 6 4 2 3 3 1 5 2 6 5 6 7 4 2 3 3 5 5 5 6 6 6 6 7 8
20 18 15 13 11 8 7 5 1 1 2 3 3 3 7 4 5 7 3 3 3 5 2 2 1 4 4 3 7 8 2 2 4 4 10 12 7 4 2 2 4 3 5 5 6 3 8 7 3 2 3 6 5 4 5 6 3 3 6 11 12 12 7 6 3 3 4 4 2 4 2 5 5 5 7 4 3 4 3 4 7 6 5 5 6 7 7 7
19 16 13 11 9 5 3 1 2 1 3 1 0 7 8 2 7 9 4 4 2 5 2 1 1 3 6 4 4 4 3 3 5 5 10 11 8 5 2 1 1 3 6 5 4 2 5 4 3 3 3 5 4 4 5 7 4 3 6 11 13 11 5 7 6 4 3 3 3 3 4 4 6 5 6 5 5 6 4 5 7 6 6 6 7 7 6 6
17 14 11 10 7 2 0 2 2 1 1 1 3 8 6 4 9 6 3 4 2 2 1 0 1 4 5 4 5 5 2 4 1 4 7 11 8 3 2 3 0 2 4 3 0 2 3 1 0 1 2 3 2 4 6 9 7 3 5 6 7 7 6 9 9 5 2 3 3 4 4 1 5 5 6 5 5 7 6 8 7 5 6 7 7 7 7 7
16 13 10 8 6 3 2 2 2 2 0 3 5 7 5 6 8 3 4 3 1 0 2 1 1 3 1 1 5 4 2 2 2 1 1 9 8 3 1 6 5 5 3 5 2 5 2 2 4 3 1 1 4 5 8 10 5 5 3 7 5 5 6 7 7 3 1 2 4 5 1 1 4 6 5 4 3 7 7 10 9 6 7 7 7 7 6 6
14 11 8 6 4 2 2 4 4 2 1 4 5 6 2 7 5 4 4 2 1 1 1 0 1 1 1 2 3 1 2 1 1 3 2 5 5 2 2 6 6 5 3 4 5 6 3 5 5 4 2 5 8 6 9 11 7 3 5 8 5 4 5 5 5 3 3 3 3 6 2 2 5 6 4 3 1 6 7 9 8 5 6 7 7 7 6 5
12 10 7 4 2 1 3 4 4 1 2 4 4 4 2 5 4 5 3 1 0 1 0 1 1 2 4 4 1 3 2 2 1 1 2 2 0 3 1 2 5 4 1 2 3 6 5 2 3 4 5 7 6 4 8 11 8 2 6 6 5 5 4 4 3 4 3 2 5 5 4 4 2 5 3 2 3 5 5 6 7 4 5 7 6 5 6 5
10 8 5 2 2 4 3 2 2 1 3 4 4 2 2 3 4 5 2 0 0 1 1 1 1 3 5 5 1 1 1 1 2 3 2 1 2 3 1 1 3 3 3 4 4 5 6 2 2 5 6 5 3 1 3 5 3 4 4 4 3 4 5 4 4 4 2 4 6 4 3 6 1 5 5 4 6 6 5 6 7 6 6 6 5 4 5 5
7 5 2 1 4 6 4 3 1 2 4 4 3 3 4 3 2 3 1 2 1 1 1 2 1 3 5 4 1 2 2 1 0 3 3 2 2 2 2 3 2 2 3 3 3 5 5 5 3 4 4 5 4 1 3 2 4 5 3 4 3 2 3 3 3 1 2 5 4 2 1 4 4 8 7 6 7 7 6 7 7 7 7 6 5 5 4 5
5 6 5 3 3 4 3 1 2 4 4 3 3 4 5 5 2 1 2 2 0 2 1 1 1 3 6 4 1 2 3 2 2 1 1 2 2 3 3 3 6 2 1 3 1 4 4 5 3 2 3 3 6 4 1 0 2 5 5 4 4 2 2 1 3 2 3 4 3 3 2 1 4 5 5 6 7 7 8 8 7 7 6 4 2 4 4 5
5 6 5 4 2 0 2 2 3 3 4 3 4 4 4 4 1 1 1 2 2 2 2 2 2 4 5 3 2 3 2 2 2 3 1 2 1 3 3 2 4 3 2 1 1 1 1 4 3 3 1 2 5 6 6 4 3 4 5 5 5 4 4 3 3 3 3 3 2 3 1 2 2 3 5 6 7 6 5 5 4 4 3 1 3 4 5 5
6 6 5 4 4 2 1 3 2 3 3 4 5 4 3 1 2 1 2 3 2 3 4 3 4 5 3 1 2 2 3 2 1 4 2 2 3 3 3 3 5 4 4 2 3 1 2 4 8 4 1 5 5 5 6 6 2 1 3 5 3 4 5 2 3 5 3 1 1 2 2 4 4 4 3 3 4 4 4 2 1 1 1 3 4 4 5 5
4 5 5 5 5 5 2 2 2 2 3 5 5 3 2 3 2 2 2 2 2 4 5 5 5 5 2 2 3 2 1 0 0 2 1 2 3 3 3 4 5 6 6 4 3 1 1 5 7 5 2 6 6 5 5 4 3 1 2 3 4 4 7 5 2 0 3 1 2 1 3 4 3 4 5 4 3 4 5 4 1 1 1 2 4 4 4 4
3 5 6 7 7 6 5 3 1 3 3 6 4 0 2 3 3 4 2 2 2 2 3 3 2 2 1 1 3 4 3 1 1 1 1 2 1 3 4 4 4 8 8 5 3 3 1 5 6 3 4 6 4 4 1 1 4 5 2 5 3 2 4 4 2 3 4 1 3 2 3 5 3 2 5 6 4 5 5 4 3 3 3 4 5 4 4 5
2 4 6 9 7 4 4 3 3 3 4 5 2 1 2 2 2 4 3 2 2 2 3 2 1 1 2 1 2 3 2 0 1 0 2 1 1 1 2 4 2 5 8 6 3 3 2 3 7 3 4 6 3 4 3 5 2 4 4 3 2 2 0 1 2 1 1 2 3 4 4 3 3 4 5 4 5 6 6 5 5 5 4 5 5 5 5 4
4 3 4 10 7 2 3 5 5 4 5 4 1 1 1 2 3 4 5 3 0 2 2 1 1 2 2 2 1 2 2 1 1 1 1 0 1 1 4 2 3 5 5 8 6 2 2 0 6 5 3 4 5 3 1 3 3 2 2 1 2 3 4 2 2 3 3 2 2 3 4 3 5 6 5 6 8 7 7 6 6 7 6 5 5 5 5 5
4 3 2 10 7 1 5 7 5 5 4 2 2 2 1 3 5 5 5 3 2 1 1 1 2 2 1 1 1 1 1 1 1 1 0 1 0 1 5 3 3 7 4 4 4 2 2 2 4 6 4 4 3 1 4 4 2 1 2 1 1 1 2 2 1 1 3 3 3 1 2 5 7 5 7 9 9 8 9 8 8 7 6 6 6 5 5 5
4 4 3 10 6 2 6 6 4 3 2 1 1 2 2 2 3 6 6 2 2 0 1 3 3 2 1 1 2 2 1 2 2 1 1 2 1 1 4 5 4 7 2 3 1 2 2 3 3 4 5 2 5 6 4 5 5 5 4 4 3 3 3 3 1 2 2 3 4 4 1 7 7 4 6 8 7 7 8 8 8 7 6 7 6 5 5 4
4 3 4 8 4 3 6 4 1 2 2 1 2 3 3 2 3 6 7 5 2 3 3 3 3 3 2 1 1 2 3 2 3 2 2 2 1 1 4 7 6 6 1 3 3 4 3 3 2 4 5 5 9 8 2 4 4 4 3 3 4 3 4 5 2 3 1 2 2 4 1 6 6 3 5 6 5 5 6 7 7 6 6 6 5 4 4 2
3 1 3 7 2 2 6 4 3 4 2 3 3 2 2 2 4 5 7 7 5 4 5 4 3 3 4 3 2 3 3 2 3 3 2 3 1 3 7 8 8 5 2 2 3 2 2 2 1 3 5 5 8 7 3 3 3 3 2 1 4 2 2 5 5 3 3 2 1 3 0 6 6 3 3 4 5 5 5 5 6 6 5 5 5 4 3 2
2 2 2 8 4 0 5 3 2 3 3 5 5 5 4 3 5 6 6 7 5 3 4 4 3 3 2 2 3 3 2 2 3 4 2 2 3 5 6 8 8 5 3 1 2 0 1 1 3 1 4 5 6 6 6 4 2 2 2 2 2 4 4 4 3 3 2 3 4 4 2 7 6 4 4 3 4 5 5 3 5 6 5 5 4 4 3 4
2 1 2 8 9 5 4 2 1 1 3 4 5 6 6 4 3 5 5 6 6 3 3 2 3 3 3 3 4 4 4 2 2 3 2 2 5 4 6 9 7 5 5 5 2 1 1 1 3 3 2 1 1 2 3 3 1 1 1 3 1 5 5 4 3 4 1 3 5 4 4 7 7 6 5 5 4 5 5 1 3 5 5 4 3 2 3 4
2 2 2 6 8 6 2 1 2 1 1 2 4 5 6 5 4 4 4 6 6 5 3 2 4 3 5 6 5 5 6 3 2 2 2 3 4 3 7 9 5 5 11 11 6 3 3 1 3 6 6 5 6 6 5 1 1 0 1 1 3 1 5 5 5 3 3 3 2 5 6 4 10 9 6 5 4 6 6 2 3 5 4 2 2 3 4 3
2 2 2 2 3 4 3 4 5 3 1 2 3 4 5 5 4 5 5 4 5 6 4 3 6 5 3 4 4 4 7 5 3 3 2 3 3 5 9 7 3 5 12 12 8 4 4 3 1 5 6 6 8 8 5 2 1 3 2 2 3 1 4 7 4 3 5 5 2 7 5 3 8 9 7 7 6 6 7 6 5 4 3 3 4 5 4 4
3 1 0 0 1 1 2 4 5 5 5 4 3 3 5 6 5 5 4 3 4 6 4 4 7 7 4 3 3 3 7 6 4 4 3 3 4 6 9 5 2 5 10 8 6 3 4 1 2 1 3 3 4 5 4 1 1 3 3 4 3 3 5 4 3 5 7 6 5 6 6 6 8 8 8 9 9 8 8 5 3 3 5 5 5 5 5 4
3 2 2 1 2 2 1 4 4 4 7 6 4 4 5 7 6 3 3 3 4 6 4 3 6 7 7 6 4 3 4 4 3 4 3 4 6 5 6 6 4 4 9 7 5 2 2 2 2 2 4 4 3 3 2 1 0 2 4 4 3 4 7 6 4 6 7 5 6 4 5 7 9 8 8 8 6 6 4 3 4 4 5 6 6 6 5 5
3 1 2 2 3 1 2 3 3 4 6 5 3 3 4 5 6 4 3 3 3 4 4 4 5 6 4 7 6 4 1 1 3 5 3 4 5 3 2 3 4 5 8 5 4 3 3 3 2 3 3 4 4 5 5 3 0 3 5 5 4 3 3 3 3 5 5 4 3 1 1 7 7 5 5 4 3 6 4 4 5 5 5 7 6 6 6 6
2 1 1 3 3 4 3 3 3 4 4 4 3 3 3 5 5 3 2 3 4 2 3 3 5 5 2 6 7 2 3 3 6 10 8 5 5 3 2 3 4 7 7 3 3 3 2 2 3 5 4 5 4 5 6 5 2 1 6 6 3 2 2 2 2 4 4 3 1 2 2 6 5 4 5 4 3 6 6 6 6 4 5 7 7 7 7 7
4 0 2 4 2 4 3 3 3 3 2 3 3 3 2 4 5 3 1 1 3 5 3 2 3 3 2 5 6 6 8 8 9 12 9 7 8 7 6 8 7 6 5 3 3 2 1 0 2 2 1 6 5 4 4 5 5 3 6 5 5 3 2 2 3 4 4 4 6 3 5 6 5 3 4 4 4 6 7 7 6 5 6 7 7 8 8 8
Wind_Direction
355 353 347 342 340 338 340 343 344 343 341 339 340 340 338 340 339 340 338 335 332 323 317 310 300 291 281 276 277 283 293 295 292 273 241 256 260 250 241 248 229 194 188 164 140 129 116 121 139 128 117 113 20 321 164 159 83 51 78 93 287 223 210 191 181 192 178 194 195 185 173 157 183 196 153 61 65 71 60 12 12 358 36 124 130 138 145 149
0 356 351 348 342 339 342 342 342 340 337 335 337 335 334 337 336 337 337 336 333 324 319 309 294 282 272 272 277 289 303 303 294 263 250 258 261 255 235 229 219 189 186 174 154 136 117 160 146 118 91 65 269 189 148 199 139 119 109 126 248 213 213 190 175 186 177 172 167 175 188 179 195 181 149 140 158 102 117 321 34 64 85 112 129 139 146 150
0 355 354 352 347 345 345 344 343 339 335 333 333 332 333 334 335 336 336 337 334 328 321 306 286 274 269 273 284 305 311 314 303 261 258 264 237 238 199 179 188 186 188 187 177 156 137 146 142 126 75 25 265 151 144 229 179 183 113 176 247 226 235 208 176 186 186 150 143 164 193 238 255 173 149 173 160 153 178 205 129 134 138 130 139 144 150 154
358 356 355 353 351 350 349 347 344 339 335 332 331 331 331 334 335 334 336 337 333 330 321 301 278 269 271 281 300 316 314 331 268 247 244 294 243 209 173 160 156 167 182 177 163 166 144 130 136 124 83 299 305 78 179 214 187 204 151 204 243 215 246 232 185 179 153 139 147 148 131 258 273 175 182 148 134 235 229 215 187 166 155 147 151 152 154 157
356 355 354 353 353 353 352 350 345 341 336 332 331 330 331 334 332 332 335 335 331 329 319 292 270 268 273 293 317 312 329 59 235 249 258 296 286 181 172 159 139 148 160 137 128 150 138 117 108 68 66 279 320 59 234 211 158 210 215 230 249 177 245 258 158 146 122 118 130 135 153 203 176 51 213 161 164 227 228 211 194 170 157 155 156 156 157 161
354 353 353 353 354 354 354 352 348 344 338 334 332 329 332 332 330 332 333 332 331 326 312 279 262 265 274 299 323 311 76 106 261 257 258 305 92 175 173 171 158 147 154 136 125 133 122 98 90 100 86 326 229 200 257 234 159 221 277 270 258 218 241 330 96 143 133 122 145 161 174 148 127 260 220 180 209 234 248 191 170 165 159 157 155 157 162 166
352 352 352 352 353 354 354 353 351 347 343 338 332 331 332 330 329 330 331 331 328 323 304 262 258 254 275 298 310 7 95 250 273 254 254 303 161 177 177 183 179 158 156 145 127 122 114 101 120 149 109 356 245 220 261 274 169 201 270 289 260 208 213 13 105 157 136 137 173 152 133 147 168 236 147 202 238 259 303 156 146 151 151 154 156 162 168 169
351 351 351 351 352 352 353 352 351 349 348 343 337 334 330 328 328 329 332 331 326 321 281 240 244 227 286 254 289 5 358 260 284 251 245 278 167 179 178 178 179 171 160 159 149 137 131 128 175 160 100 276 265 268 290 4 116 191 236 261 248 137 124 68 105 111 62 60 315 118 143 189 184 182 125 223 245 262 297 128 131 137 144 156 163 165 170 170
349 349 349 349 350 350 349 349 349 349 349 348 341 333 330 328 328 332 333 331 330 315 251 225 211 162 308 201 82 30 267 277 320 242 233 237 172 179 180 173 176 176 161 172 161 144 164 172 198 175 158 254 315 313 323 32 307 220 233 243 144 72 41 78 112 93 63 27 350 150 188 251 193 179 233 239 236 218 190 131 128 139 149 160 165 168 171 172
347 347 347 347 347 346 346 346 347 347 349 349 343 334 330 327 329 334 332 334 344 330 226 187 179 108 14 340 74 78 275 327 332 218 227 220 171 175 182 180 180 181 168 168 161 157 180 184 184 152 143 256 285 292 331 85 263 245 222 262 81 72 53 93 121 89 62 274 231 198 233 292 353 52 267 260 214 138 138 135 136 146 156 165 167 171 173 175
345 345 344 343 344 343 343 344 345 346 347 348 344 334 328 327 331 334 334 344 5 69 144 179 167 114 354 67 96 179 300 357 289 212 255 230 180 181 186 187 186 187 173 152 180 194 196 183 152 103 98 236 250 297 275 211 281 318 135 70 14 18 66 97 119 104 79 229 192 157 254 303 21 135 235 251 166 138 146 147 152 158 160 168 171 173 174 179
341 341 339 339 340 339 340 340 342 345 345 346 343 333 327 325 330 331 334 351 32 117 152 170 164 200 8 65 166 229 307 354 223 218 258 209 186 191 192 193 194 195 185 161 197 208 206 197 121 91 238 198 310 322 271 239 315 11 119 123 335 6 18 253 148 133 131 203 181 129 311 295 247 225 234 237 161 138 144 155 163 169 161 165 173 177 180 177
336 336 335 335 336 335 336 337 340 342 342 344 340 330 322 321 329 328 324 347 88 134 159 154 199 311 27 274 232 256 295 317 236 229 225 196 181 189 192 198 206 208 201 188 202 211 214 217 189 223 224 148 262 276 56 6 7 8 67 95 2 14 335 270 143 126 145 185 158 117 296 272 244 238 247 265 154 134 143 168 171 176 166 166 175 182 185 173
333 332 332 332 332 331 332 333 336 339 339 342 339 326 317 320 327 318 336 59 132 143 162 145 328 338 92 255 269 318 283 253 236 227 210 195 171 167 185 194 203 206 207 213 229 221 213 216 205 237 225 161 244 290 25 3 8 32 21 40 51 69 285 290 289 141 156 199 122 107 264 266 270 263 255 227 158 145 160 179 180 183 178 179 183 186 191 188
332 331 330 330 329 328 328 329 332 336 337 339 337 318 312 322 324 135 108 123 136 138 144 99 8 36 70 292 277 304 284 228 230 225 213 200 170 156 187 193 195 198 208 227 241 252 245 220 189 219 268 264 41 45 10 350 4 36 35 320 346 171 262 306 295 163 165 34 86 119 229 272 279 279 270 199 163 159 171 182 187 189 187 187 190 190 193 205
333 331 330 328 327 326 325 326 330 332 336 339 333 303 299 117 127 117 130 127 129 128 109 64 21 62 104 303 286 324 259 224 238 227 217 212 196 168 182 181 185 201 216 235 253 267 264 236 127 140 330 8 54 73 26 11 351 0 94 241 276 194 274 313 323 179 155 115 102 175 226 275 265 314 338 179 168 167 176 189 192 192 195 190 189 195 193 203
335 332 330 327 325 323 322 325 328 329 336 340 327 251 158 128 122 108 123 124 130 125 78 57 10 25 206 267 331 306 253 227 241 227 213 214 212 197 158 159 151 172 208 239 265 289 267 69 29 348 41 42 69 85 33 355 314 320 20 74 258 229 276 295 321 334 111 108 217 218 257 263 258 329 6 4 177 172 184 199 199 196 198 193 188 195 197 203
337 333 330 327 324 322 322 324 325 327 337 343 339 156 138 130 117 105 121 125 120 95 32 1 12 30 249 266 246 268 280 247 239 215 202 209 212 212 195 115 127 95 46 8 346 4 18 11 30 27 6 20 46 78 100 239 224 297 6 38 311 302 282 266 283 234 141 114 211 200 262 261 266 286 346 261 190 184 197 202 206 207 200 197 193 197 204 207
338 335 331 326 324 322 321 324 324 324 336 354 107 117 121 118 111 109 104 110 125 129 354 230 162 100 221 246 263 302 310 274 221 199 187 195 204 208 296 51 96 79 58 60 336 357 51 27 43 25 304 315 151 136 161 198 162 131 127 123 267 295 287 255 247 228 175 143 206 206 237 259 270 279 278 234 196 194 208 204 212 219 208 204 202 204 207 210
339 336 331 328 324 321 322 325 321 321 332 20 144 120 120 104 64 21 1 150 212 213 157 182 186 239 295 260 313 336 324 259 181 192 183 184 171 157 34 26 48 52 76 155 274 340 79 69 258 228 237 206 186 186 169 177 147 119 254 285 268 268 282 270 251 248 186 149 224 214 229 265 271 269 261 216 193 201 211 206 212 213 205 208 207 212 211 212
340 337 332 329 323 322 324 323 318 320 325 186 161 129 161 179 81 292 283 254 247 230 222 226 197 246 272 263 310 359 22 18 315 266 180 181 141 122 303 20 66 37 311 191 204 357 59 127 240 227 223 203 177 176 168 190 200 250 249 290 290 234 260 278 285 262 205 169 243 215 220 260 261 260 261 186 185 208 210 205 210 206 203 209 209 218 218 209
342 337 332 328 323 324 324 320 319 319 320 173 171 169 210 191 139 131 51 300 282 239 212 251 263 266 267 262 267 242 69 29 296 312 173 165 131 148 228 62 110 193 312 50 54 5 26 252 251 237 196 167 167 165 168 213 231 228 195 274 288 248 264 294 329 339 197 184 254 211 203 253 263 263 257 211 203 217 214 209 210 195 194 210 212 218 221 209
342 337 333 327 324 328 324 320 318 312 289 164 181 178 286 284 200 240 41 31 287 292 178 209 230 250 269 266 229 172 113 164 196 244 177 152 137 177 143 95 126 145 48 99 137 112 335 254 256 221 152 164 222 176 159 208 258 212 192 195 267 256 221 283 315 8 74 182 234 180 201 269 282 282 268 234 219 227 203 203 205 186 195 210 210 212 214 210
342 337 332 327 328 329 323 321 309 269 199 227 209 192 345 317 242 233 213 74 301 303 215 192 196 206 229 253 176 152 137 188 181 224 174 153 136 151 151 136 122 127 225 182 151 168 230 239 242 114 150 173 220 196 152 189 267 237 210 208 246 253 216 219 264 6 16 332 118 106 27 303 288 275 277 296 256 230 197 192 205 205 205 203 197 204 211 210
343 337 332 327 330 331 327 324 232 182 315 244 218 333 350 335 203 178 138 46 333 298 273 185 256 219 194 131 158 161 100 214 219 209 171 161 149 127 165 164 127 186 217 165 139 196 252 245 211 204 196 175 199 228 180 181 228 294 234 210 224 245 228 185 177 65 42 314 255 112 64 291 300 279 269 303 289 246 237 217 216 214 206 193 197 209 210 208
342 335 331 326 330 345 348 345 161 342 327 209 303 341 353 56 155 152 115 44 351 295 319 69 317 199 173 137 168 156 64 286 246 177 160 166 158 116 132 179 82 202 187 152 150 206 261 257 182 193 203 172 190 249 219 169 142 317 247 206 213 231 205 158 161 117 104 247 267 103 147 255 314 305 281 304 282 270 282 253 230 212 206 203 208 213 207 202
342 334 330 323 328 344 213 158 160 334 350 14 341 338 351 118 144 142 77 41 359 290 117 299 322 163 175 172 157 128 124 268 256 136 161 171 169 83 120 199 120 202 178 122 194 245 211 204 150 168 118 151 204 263 222 156 133 247 235 165 179 200 184 174 163 133 189 238 343 25 117 174 307 283 290 319 292 292 295 265 248 214 207 215 216 213 207 199
341 331 324 318 322 299 222 181 191 200 235 337 329 336 359 135 145 109 74 73 324 258 139 261 243 159 179 161 156 145 206 237 103 290 225 161 173 61 78 218 185 192 190 122 202 266 198 185 244 231 104 200 231 224 189 157 162 248 181 116 135 168 170 167 146 118 6 34 335 312 111 127 280 278 311 353 317 298 287 265 257 224 205 216 220 217 209 199
340 328 320 315 313 285 208 197 197 187 329 335 337 336 26 139 129 55 80 103 295 275 142 74 147 181 32 81 184 245 340 12 112 271 7 131 180 73 139 213 160 173 221 143 205 261 239 209 209 186 178 233 239 213 168 166 200 229 110 90 73 92 107 109 110 99 43 42 272 259 157 154 271 285 316 4 311 269 264 265 266 231 208 215 217 212 200 189
337 323 316 310 289 176 174 206 204 158 344 341 331 316 118 121 74 57 70 61 290 272 294 121 188 177 106 104 256 300 306 308 13 18 35 95 51 42 126 179 105 131 269 357 252 254 269 257 171 185 210 217 229 209 171 181 199 135 83 69 49 45 61 71 71 81 64 328 262 240 150 131 282 284 255 220 228 236 242 268 282 263 230 224 218 202 185 180
337 328 316 288 198 163 147 166 187 219 332 338 323 314 89 66 57 87 98 309 162 308 333 185 204 133 130 138 203 256 201 291 19 77 105 109 56 38 2 289 62 62 0 346 292 285 315 315 211 243 230 193 186 233 196 188 155 85 63 66 53 349 16 30 359 45 99 262 268 263 157 126 176 265 244 234 247 244 228 240 264 267 253 236 219 195 177 172
349 357 358 209 180 177 159 127 135 297 308 318 349 52 79 39 35 92 289 317 345 279 242 205 213 149 150 135 128 208 166 222 309 115 136 148 150 175 200 203 176 33 342 283 287 328 309 245 245 292 247 173 150 256 333 28 89 103 99 78 75 339 9 13 317 352 212 247 262 287 222 144 217 250 251 256 258 254 232 223 238 246 247 241 215 192 170 155
19 34 50 77 148 183 190 205 302 314 307 316 31 58 77 74 67 228 284 327 327 246 262 61 88 127 134 123 296 225 168 222 232 133 124 130 153 239 256 200 166 130 286 230 296 348 317 296 309 306 266 176 147 163 248 295 140 152 161 131 118 112 67 294 279 289 261 261 267 287 273 233 277 268 241 244 258 258 245 231 226 230 241 245 194 171 161 156
47 46 46 51 64 192 220 243 281 316 337 30 69 64 70 81 178 238 286 278 266 299 352 41 68 66 95 138 234 199 162 254 187 125 47 74 86 279 282 230 175 141 125 182 262 174 92 318 270 203 218 152 175 189 175 157 152 175 167 134 140 155 154 209 224 206 238 263 276 288 269 185 237 251 215 231 263 274 266 243 218 228 247 133 127 155 163 167
56 46 43 44 38 8 243 211 249 334 14 63 69 65 98 157 252 254 253 256 286 326 340 26 82 67 40 329 278 200 171 240 156 110 85 129 167 213 232 223 189 147 125 160 256 184 115 263 251 257 156 159 206 218 151 120 105 216 138 111 158 184 147 154 188 179 189 212 237 254 242 209 219 252 263 273 287 309 332 338 92 289 309 112 144 181 180 177
45 44 53 49 37 20 20 184 192 8 47 80 62 52 153 210 204 172 228 257 318 316 334 6 59 73 18 330 325 336 51 23 44 79 130 194 194 209 225 227 190 169 161 165 221 194 22 276 270 316 296 195 212 211 166 152 166 157 121 165 219 178 120 118 193 135 82 128 251 256 271 294 319 309 324 1 342 324 342 356 17 294 279 177 196 207 203 195
36 59 55 35 36 43 58 104 80 14 54 84 77 76 225 231 182 181 243 306 307 321 50 42 40 80 64 349 315 321 355 351 357 38 243 257 265 228 245 264 196 185 192 188 226 212 191 284 282 301 281 260 230 174 91 36 137 123 176 212 204 102 92 105 124 13 39 195 275 312 269 297 347 310 321 353 331 296 302 302 285 265 220 214 228 219 214 209
67 90 53 21 23 52 62 50 0 14 66 75 59 260 239 251 198 201 259 315 327 10 66 95 51 99 127 91 296 302 13 341 298 217 216 282 282 222 309 303 236 205 210 192 222 252 163 293 292 265 250 291 335 95 36 344 51 122 171 187 113 122 185 62 121 127 97 214 285 316 303 283 205 230 287 298 255 246 254 264 267 250 215 219 239 235 227 219
59 92 31 360 1 39 21 342 342 38 70 58 354 264 248 271 263 240 263 300 20 57 57 182 82 62 114 130 222 298 31 153 213 171 154 43 218 104 47 331 282 298 250 184 184 233 124 95 295 280 253 315 2 57 152 298 346 57 131 94 41 140 163 160 143 154 159 173 245 307 329 288 227 217 218 234 235 221 220 238 245 238 222 216 224 226 224 215
44 86 346 345 359 21 330 332 360 52 65 65 201 216 292 274 277 279 282 271 191 83 34 176 82 46 34 101 149 317 19 137 144 145 111 20 284 14 31 21 301 307 289 178 185 230 125 152 255 285 317 359 351 279 189 187 164 133 188 234 308 73 131 156 96 93 130 141 177 223 311 270 252 208 190 223 235 212 205 215 226 231 223 220 219 215 219 216
45 77 314 338 6 349 336 356 31 60 70 47 214 256 293 287 300 319 324 302 177 18 93 137 98 68 36 39 43 350 8 62 52 106 116 31 59 340 4 18 324 297 335 82 144 227 191 165 198 290 327 344 261 248 196 187 184 161 171 192 182 144 124 128 315 304 113 121 163 162 212 268 261 200 203 228 224 209 209 210 221 229 221 224 225 211 213 220
62 78 311 337 358 341 13 40 1 46 92 1 328 267 282 327 339 335 343 3 53 35 46 82 65 50 48 32 44 26 37 39 4 39 75 22 123 184 320 343 325 288 176 114 240 224 167 132 157 269 270 245 262 270 199 184 190 144 130 148 146 134 120 128 195 238 133 91 138 128 149 272 264 212 225 247 241 229 220 209 219 231 225 228 232 223 222 225
80 119 342 4 341 309 44 56 326 8 36 296 311 278 280 10 7 351 2 17 24 24 33 35 17 40 42 15 38 44 38 42 13 27 38 345 315 250 292 328 342 328 55 50 300 250 145 138 153 280 295 298 294 307 14 85 105 92 38 89 127 128 122 144 174 177 135 145 139 94 299 272 277 274 252 258 262 255 235 213 216 228 238 236 227 224 220 169
104 209 338 13 15 65 65 73 313 349 328 314 353 0 350 34 34 22 25 15 2 20 48 25 0 29 27 14 53 36 8 70 46 13 21 345 309 282 298 333 352 2 37 23 274 243 226 195 119 45 333 344 341 342 353 356 51 102 316 308 127 113 100 123 135 89 79 185 157 122 241 256 274 311 321 322 305 273 251 213 206 219 236 240 223 204 175 141
65 159 290 2 26 61 85 118 172 308 318 343 22 14 0 5 24 38 49 27 5 24 61 8 346 14 18 27 56 22 2 75 69 6 20 336 307 292 320 334 340 356 338 298 259 169 212 189 119 126 181 195 205 256 262 263 256 117 309 310 8 107 124 155 122 80 73 198 154 151 220 263 293 310 317 330 328 287 268 215 197 221 226 230 219 167 142 139
81 69 311 341 17 47 64 50 63 57 329 23 46 24 8 352 329 347 41 47 15 12 48 17 342 12 26 27 41 16 0 19 60 46 36 335 315 292 317 320 311 340 341 337 351 86 132 99 110 146 170 188 196 224 250 266 40 340 131 303 303 84 115 113 98 105 173 164 183 216 205 268 302 294 282 288 281 265 266 251 223 231 219 192 150 119 121 139
95 70 13 325 352 18 12 6 26 20 334 73 73 21 2 357 338 340 12 41 9 3 41 37 15 32 29 20 43 17 348 343 15 33 3 322 300 285 303 299 260 350 356 353 357 46 89 30 45 160 185 206 199 223 267 7 357 252 188 179 254 256 91 91 113 176 150 120 272 259 193 194 277 273 255 249 240 239 250 246 235 223 181 145 127 121 129 144
78 102 74 120 357 18 4 346 348 358 13 53 77 36 12 14 20 7 351 359 8 11 30 27 16 25 25 35 92 34 346 344 4 1 337 332 327 319 328 322 277 1 12 5 353 52 102 21 325 206 278 262 209 237 254 164 186 248 219 207 211 172 140 128 165 179 145 142 230 236 180 198 258 269 249 229 213 213 224 221 203 161 138 132 131 137 152 168
66 72 313 9 81 161 250 314 321 6 28 36 39 29 24 21 21 355 318 349 12 5 35 49 353 356 22 43 84 74 4 356 342 323 331 354 343 334 342 331 303 4 22 8 340 28 91 321 317 334 320 330 344 319 305 132 263 284 265 260 253 198 177 163 174 177 169 199 226 194 188 240 259 256 250 239 205 192 187 145 148 160 149 142 143 154 175 192
65 82 307 17 48 16 314 339 359 41 32 29 32 22 20 25 14 336 333 42 39 347 24 51 334 328 38 52 62 94 120 186 239 263 287 341 332 317 324 301 290 338 1 360 329 347 8 323 330 41 357 321 335 5 26 39 176 242 281 312 321 279 196 158 165 166 177 239 257 102 268 273 272 267 278 285 159 150 157 168 189 195 161 148 155 168 187 204
60 184 131 91 45 354 347 351 24 61 34 13 22 12 10 10 353 330 345 55 78 48 23 15 329 315 27 43 37 23 296 274 239 246 252 254 254 259 278 264 281 321 331 336 322 335 2 323 346 43 19 294 316 21 14 11 68 249 294 299 281 247 213 214 210 179 183 194 159 38 304 265 276 323 331 311 164 164 191 203 205 204 168 160 172 180 190 206
24 7 55 98 84 3 358 349 14 64 64 342 346 3 17 347 331 349 65 4 62 76 42 11 11 352 15 29 8 324 304 295 269 259 257 244 240 245 253 254 259 276 282 298 310 281 150 226 314 46 21 279 298 10 14 23 43 334 278 228 197 202 208 251 295 266 224 149 139 198 243 240 262 315 318 281 222 197 211 210 203 196 179 177 186 186 192 207
Height
788 787 787 786 785 785 784 783 783 782 781 780 779 778 777 776 775 774 774 773 772 771 770 770 769 768 768 767 767 767 766 766 765 765 763 755 752 754 755 757 759 761 763 763 764 765 768 770 771 771 773 775 777 777 776 776 776 783 794 802 802 801 796 789 789 789 786 784 785 784 781 784 785 781 777 776 780 782 782 781 778 776 774 774 776 778 781 785
788 787 786 786 785 784 783 783 782 781 780 779 778 777 776 775 774 773 772 772 771 770 769 768 768 767 766 767 766 766 766 764 764 763 757 751 751 753 754 756 758 759 760 762 764 765 769 771 771 773 775 778 779 778 779 777 779 788 797 803 799 792 785 779 779 780 780 781 783 784 782 783 782 781 778 782 787 784 786 785 782 782 779 777 777 780 783 785
788 787 786 785 784 784 783 782 781 780 779 778 777 776 775 774 773 772 771 770 769 768 768 767 767 766 766 766 765 766 765 764 764 758 751 749 751 752 753 755 757 758 760 762 764 765 767 769 770 773 777 781 779 779 782 780 782 787 793 802 794 782 778 776 775 775 776 777 782 785 783 784 781 779 779 783 789 787 788 787 785 787 784 781 779 780 783 785
787 787 786 785 784 783 782 781 780 779 778 778 776 775 775 773 772 771 770 769 768 767 766 765 765 765 766 765 765 766 763 766 762 752 749 750 750 751 753 755 756 758 760 762 764 766 767 768 770 772 778 783 781 781 784 781 783 785 789 794 783 777 778 774 772 772 773 775 779 783 785 786 781 779 781 784 790 792 788 782 781 783 782 782 781 780 782 785
787 786 785 784 783 782 781 781 779 779 778 776 776 774 773 772 771 770 769 768 766 766 765 765 764 764 765 764 766 764 765 773 761 747 749 750 750 752 753 755 757 758 760 762 764 766 767 769 771 774 780 784 783 784 783 777 779 785 785 782 777 777 778 773 773 773 773 775 779 784 786 784 781 781 782 783 788 787 780 775 775 776 776 778 779 780 782 785
787 785 785 784 783 782 780 780 779 778 777 775 775 773 772 771 770 769 768 767 765 765 764 764 764 764 764 764 765 763 767 773 756 746 750 749 750 752 752 755 756 758 760 762 763 766 768 770 774 779 783 784 785 785 781 774 775 785 783 777 776 775 776 775 774 775 774 777 780 782 781 780 783 784 782 782 782 776 771 769 771 773 773 774 777 779 782 785
786 785 784 783 782 781 780 779 778 777 776 774 774 772 772 770 769 769 767 766 765 764 763 763 763 764 764 764 765 763 766 763 749 748 750 748 751 751 752 755 756 759 760 761 764 766 769 773 777 780 784 785 785 783 779 774 774 783 784 777 774 773 775 774 774 776 777 778 779 778 779 781 785 785 782 782 777 772 771 768 769 772 773 775 777 780 782 784
785 784 783 782 781 780 779 778 777 776 775 773 772 771 771 769 769 767 766 765 763 763 763 763 763 763 764 764 764 765 765 756 747 749 749 749 750 750 752 754 756 759 759 762 763 766 770 774 776 777 784 786 782 780 776 775 777 781 781 776 772 772 773 773 774 778 779 780 780 779 780 781 782 783 783 781 774 772 772 769 770 772 774 777 779 780 782 784
785 784 782 781 780 779 778 777 776 775 774 772 771 770 769 768 768 767 765 764 763 763 762 762 764 763 764 763 764 767 761 750 747 748 748 749 750 750 752 753 756 758 759 762 762 765 769 773 774 773 781 782 779 779 774 779 782 776 775 774 772 773 772 773 776 779 780 781 782 783 783 782 780 782 783 776 772 772 772 773 773 774 777 779 780 781 782 784
784 783 782 781 779 779 777 776 775 774 773 772 770 769 768 768 767 766 764 763 763 763 762 763 764 763 764 762 765 769 756 747 749 748 748 750 750 751 752 753 756 757 759 761 762 765 766 769 769 767 774 778 778 778 775 779 777 770 772 773 772 774 772 774 777 779 781 780 782 785 786 784 780 784 786 775 770 772 773 776 776 777 779 780 780 781 781 783
783 782 781 780 778 778 776 775 774 773 772 770 769 768 767 766 766 765 764 763 763 763 763 763 763 764 764 762 768 766 751 747 750 748 749 750 750 751 752 754 755 756 758 760 762 762 763 764 763 767 775 777 777 777 774 772 769 768 772 775 776 776 774 776 778 780 781 781 781 784 787 786 783 786 783 774 771 771 775 779 778 779 781 780 781 781 782 783
782 781 780 779 778 776 775 774 773 772 771 769 768 767 766 766 765 764 764 763 763 763 763 763 764 764 763 764 765 758 749 749 750 749 750 750 751 752 752 754 755 756 757 759 761 760 762 763 763 771 775 774 778 781 774 767 768 771 773 780 782 778 779 778 778 780 782 783 779 783 792 791 788 784 775 772 772 771 776 780 780 781 781 781 781 782 782 782
782 780 779 778 776 775 774 773 772 771 769 768 767 766 765 765 764 764 763 763 763 763 763 763 764 763 765 765 757 750 749 750 749 749 751 750 752 752 753 755 755 757 758 758 760 759 762 763 764 770 769 772 779 776 769 766 769 774 776 783 787 789 787 779 778 781 782 784 777 785 801 794 784 779 772 772 773 774 779 781 781 782 781 782 782 782 782 782
781 779 778 777 775 774 773 771 771 769 768 767 766 765 764 763 764 763 763 763 763 763 763 763 764 763 765 761 751 749 750 749 750 750 750 751 752 753 754 755 756 757 758 758 759 760 762 762 764 766 766 770 772 768 771 775 774 778 783 788 794 800 793 779 780 783 784 785 777 787 805 792 777 775 773 773 773 775 781 781 782 782 782 782 782 783 783 781
779 778 777 775 774 772 771 770 769 768 767 766 764 764 763 763 763 763 763 763 763 764 763 763 764 763 766 760 749 749 750 749 749 749 750 752 752 753 753 754 756 756 758 758 759 760 761 762 765 770 769 766 767 774 782 783 781 785 792 796 800 803 795 782 780 782 784 786 780 788 803 792 777 775 773 772 773 775 780 781 781 782 782 783 782 783 783 781
778 777 775 774 773 771 770 769 768 767 765 764 763 763 762 763 763 763 763 763 763 764 763 765 764 764 768 761 750 749 750 749 748 748 750 751 752 753 753 754 756 757 758 758 758 760 759 762 766 770 771 770 776 783 787 790 791 792 795 798 799 801 799 790 783 782 781 784 785 789 796 789 778 775 774 773 774 776 780 781 780 781 781 782 782 783 782 781
777 775 774 772 771 770 768 767 766 765 764 763 762 762 762 762 762 763 763 763 764 764 763 765 764 765 764 755 752 753 749 748 748 747 749 750 752 753 753 755 756 757 757 757 759 759 760 764 769 772 775 779 783 785 794 803 799 795 795 796 798 800 800 793 787 784 782 784 788 791 794 787 776 774 775 775 775 777 780 780 779 780 780 781 781 782 781 781
775 774 772 771 769 768 767 766 765 763 763 762 761 761 762 762 763 763 763 763 764 764 766 765 764 770 767 754 754 754 748 747 747 747 748 749 751 753 754 755 755 757 760 762 762 763 765 768 773 779 782 785 787 789 800 807 801 799 799 798 800 799 797 795 790 786 784 787 791 794 796 787 776 776 777 776 776 778 779 779 779 779 779 781 781 781 781 781
773 772 770 769 767 766 765 764 763 762 762 761 761 761 761 762 763 763 764 764 765 765 766 765 763 769 768 756 751 749 746 746 747 746 748 749 751 753 754 754 756 759 767 773 771 769 770 774 781 787 788 788 790 790 795 798 797 799 799 799 801 800 796 791 788 784 783 789 793 794 793 785 779 778 777 776 776 777 778 778 779 779 780 781 781 781 780 780
772 770 768 767 765 764 763 762 762 761 760 761 761 761 763 764 765 766 765 763 761 758 758 759 758 760 759 752 748 747 746 746 747 747 747 749 750 753 755 756 760 765 772 778 777 772 773 783 790 789 787 787 788 787 787 790 793 794 797 798 799 802 796 784 784 782 780 788 792 789 790 786 780 777 775 776 776 778 778 779 779 779 780 780 780 780 778 778
769 768 766 764 763 762 762 761 760 759 759 759 760 761 762 763 766 766 763 760 755 751 753 753 753 755 752 750 748 747 749 750 748 746 748 749 750 758 763 762 769 776 778 779 779 774 777 789 789 782 782 784 787 788 786 789 791 793 797 799 800 803 795 780 782 784 779 786 789 787 790 786 778 774 773 775 777 777 775 776 777 777 778 778 778 778 776 776
768 766 764 762 761 760 760 759 759 758 757 758 759 759 759 758 760 759 759 761 755 749 752 752 752 753 748 748 748 747 753 757 754 749 748 750 753 762 767 768 776 781 780 780 782 784 789 790 781 776 781 783 786 788 788 790 792 795 799 802 801 797 792 782 782 785 782 786 788 787 789 783 774 773 772 773 773 772 771 771 773 774 777 777 776 776 775 775
766 763 762 761 759 759 758 758 757 757 757 757 757 757 756 756 755 754 757 764 760 750 751 753 753 752 750 749 746 748 756 760 760 754 747 751 758 763 767 772 778 781 782 783 786 793 796 787 775 774 779 781 784 786 789 791 792 795 798 802 799 792 794 789 785 787 785 786 788 787 788 782 774 770 769 770 771 769 769 768 769 771 772 773 773 773 773 775
763 761 760 758 758 758 757 756 756 756 756 756 756 755 755 755 754 755 757 765 765 754 749 749 749 750 750 746 742 748 756 755 756 753 746 751 760 762 765 771 778 782 783 782 785 791 790 780 773 775 777 779 782 784 787 790 792 793 792 796 793 786 790 790 786 788 787 789 787 787 793 785 774 772 769 768 770 769 768 767 768 768 768 769 770 770 771 771
761 760 758 756 757 756 755 756 755 755 755 755 755 754 753 753 752 753 758 769 771 758 750 748 749 747 742 743 744 746 752 753 750 748 744 747 756 763 767 768 774 782 784 783 787 789 783 775 772 776 778 780 783 784 786 788 792 793 785 782 781 778 783 788 788 791 797 799 786 786 801 792 774 773 771 770 771 768 768 768 767 767 767 768 769 768 768 769
759 758 756 756 756 755 755 755 754 755 755 754 754 753 752 752 752 752 759 776 776 761 755 753 753 747 740 745 745 744 758 759 744 741 743 745 748 756 767 770 771 778 780 780 784 783 778 771 771 775 777 780 784 785 783 784 794 795 777 767 772 775 781 787 788 792 802 803 787 784 799 797 780 771 771 775 774 769 767 767 765 766 766 766 766 766 766 767
758 756 755 755 754 754 755 754 754 755 754 754 752 752 752 751 752 751 763 787 784 763 758 758 754 747 742 745 743 750 770 762 744 743 742 744 747 750 766 774 773 774 772 777 786 780 773 772 773 773 775 780 782 782 778 779 791 789 769 763 770 774 779 784 787 792 797 796 790 787 791 798 792 776 775 779 775 771 767 764 763 764 765 764 764 764 764 765
755 754 753 753 752 753 753 753 754 753 752 753 751 751 751 750 752 754 772 799 787 758 754 755 747 741 741 743 742 751 760 753 755 755 740 742 748 751 767 772 770 772 768 777 789 779 769 771 772 771 775 780 776 772 771 774 781 774 764 767 770 772 777 781 788 792 793 795 799 793 790 803 801 780 777 781 776 774 767 759 759 760 762 762 761 762 762 762
753 752 752 751 752 752 752 753 753 751 752 751 750 752 750 749 753 760 782 798 778 753 751 750 745 744 745 748 750 751 751 750 759 755 741 746 748 750 765 766 765 771 768 773 781 775 767 765 764 767 775 775 766 763 765 769 772 765 763 768 771 776 779 782 788 786 789 799 800 794 792 804 803 780 777 782 776 771 762 755 757 757 759 758 757 760 760 761
751 750 750 750 750 750 751 752 751 751 751 749 751 750 748 753 760 776 795 791 770 757 752 749 751 751 752 757 760 756 755 755 754 751 749 753 750 750 758 759 761 770 771 773 775 770 763 759 760 763 764 761 756 759 762 762 763 761 764 768 772 777 775 781 787 783 796 804 794 795 794 799 805 785 774 777 769 764 759 754 754 754 756 755 755 757 758 759
750 749 749 749 749 750 751 751 750 751 750 750 751 748 751 762 771 789 797 777 764 763 754 753 756 753 755 762 765 761 759 758 754 756 760 759 759 761 764 765 767 775 780 779 774 770 765 764 763 755 750 752 754 759 760 759 760 763 768 772 776 782 781 786 789 788 807 810 794 798 796 796 808 789 767 767 762 760 761 755 751 751 753 754 754 755 756 757
749 748 748 748 749 750 750 751 750 750 750 750 750 750 761 775 783 792 786 767 767 768 757 756 758 755 757 761 764 763 762 762 758 760 764 765 769 769 770 774 775 782 791 787 779 774 766 762 759 752 746 749 755 763 765 762 764 767 772 777 787 799 803 805 806 806 813 806 793 799 797 796 801 778 759 762 759 756 758 755 752 750 750 751 753 754 755 756
749 748 748 748 749 749 750 750 750 750 750 749 751 756 768 785 791 788 779 770 770 762 752 755 756 755 759 763 766 763 762 764 761 761 764 766 772 772 769 770 771 779 789 789 787 782 771 761 755 754 750 746 751 763 769 768 768 770 772 777 790 807 819 823 825 824 817 802 794 797 796 796 790 769 759 760 757 754 754 752 751 749 749 751 753 754 754 755
749 748 749 749 749 750 750 750 750 750 750 749 756 765 776 790 790 780 775 772 764 754 753 757 757 759 762 764 765 761 763 767 761 762 767 768 776 777 772 770 770 773 779 786 788 785 785 776 759 754 752 747 748 753 757 759 764 768 766 770 781 791 804 814 816 814 810 803 799 797 795 792 784 769 760 758 755 755 752 750 750 750 750 752 752 753 753 754
750 749 749 749 750 750 750 750 750 750 751 752 762 773 782 790 787 780 775 768 761 758 757 756 757 765 767 764 763 758 760 766 762 763 769 771 776 777 772 769 769 769 777 788 787 783 791 781 754 746 747 745 747 744 743 751 764 770 766 769 777 772 777 797 805 802 802 803 802 798 791 783 773 762 758 758 755 752 752 751 752 752 752 752 752 752 752 753
750 750 750 750 750 750 750 750 751 751 751 757 770 779 781 781 779 776 769 762 762 762 762 761 761 768 773 769 766 761 757 762 764 767 771 772 773 773 770 765 763 765 770 780 784 782 788 776 750 746 747 741 743 742 739 748 761 770 770 769 769 761 763 788 805 804 804 806 804 800 790 778 771 762 756 758 755 751 754 753 753 754 752 752 751 751 751 752
750 750 751 751 751 751 751 751 752 751 752 762 775 781 779 773 768 767 762 758 761 760 763 770 767 769 776 774 771 766 762 764 767 770 773 775 773 770 767 760 757 760 759 765 774 773 778 775 752 747 749 739 737 740 739 741 748 763 770 762 760 764 764 776 796 807 813 813 805 802 797 788 786 776 759 757 757 753 753 752 751 753 752 752 751 751 752 750
750 751 752 753 753 753 752 752 752 752 755 767 777 779 777 771 764 762 758 756 760 759 764 772 770 768 774 776 773 767 766 769 772 773 774 776 774 767 767 763 756 755 752 756 767 767 772 778 760 748 752 743 735 742 749 746 742 749 755 751 757 773 776 778 793 804 812 818 809 804 804 797 790 779 760 755 756 752 751 751 749 749 751 752 752 751 752 750
750 754 758 756 754 754 754 754 752 753 761 774 781 779 775 770 762 758 755 756 760 762 765 768 767 767 770 772 772 768 768 772 773 774 774 776 774 766 765 767 761 756 752 754 763 763 767 781 773 753 749 746 741 748 759 757 749 745 748 752 757 768 775 777 786 791 798 814 815 807 804 792 777 768 758 752 749 748 750 750 748 748 749 751 751 750 750 750
752 759 764 758 755 756 755 754 755 760 769 777 781 777 773 770 762 755 753 755 757 759 763 766 766 768 769 769 771 769 769 771 771 773 775 775 773 767 763 765 765 760 753 753 759 760 763 778 780 760 749 754 754 753 756 757 755 753 756 761 762 765 771 773 781 786 787 802 813 812 807 784 760 755 752 745 743 745 747 747 745 747 748 748 749 749 749 749
754 764 767 758 756 758 755 758 764 770 774 777 778 776 771 767 762 757 753 753 754 755 757 761 765 768 769 770 771 769 769 771 771 773 775 774 775 774 765 761 765 763 756 758 761 760 764 774 778 768 761 764 757 747 749 752 751 751 754 759 761 763 771 779 790 792 785 792 802 806 803 775 749 749 747 740 740 742 743 745 744 746 747 747 747 748 749 749
760 771 768 759 759 758 758 767 773 775 777 776 775 773 768 764 764 762 757 754 756 755 755 760 765 768 770 770 771 771 772 774 775 774 776 775 775 775 766 759 762 760 757 762 761 754 757 767 774 773 766 762 752 744 749 751 748 747 749 753 757 759 765 776 788 787 786 795 796 797 798 771 745 748 749 743 745 744 744 746 745 745 746 746 747 748 749 750
767 772 765 760 760 758 763 775 777 777 778 774 770 769 766 766 767 765 762 761 761 760 762 767 768 769 771 770 771 774 775 777 779 777 777 779 773 768 764 759 760 759 757 763 762 753 756 766 774 773 765 756 747 741 743 746 748 751 751 751 755 757 757 763 772 774 782 795 792 795 800 772 744 747 749 747 749 746 745 747 745 746 745 745 747 748 749 751
771 771 765 762 761 760 771 783 783 782 782 776 773 771 767 767 769 769 769 769 768 767 770 773 772 772 772 771 772 776 777 779 783 780 778 781 774 764 760 759 760 761 760 763 762 756 761 770 774 778 780 775 766 760 755 751 752 755 755 753 753 756 758 761 767 770 778 790 789 792 796 769 745 746 746 745 747 743 743 746 745 745 745 744 747 747 748 751
772 773 771 766 762 764 776 784 785 786 785 781 781 780 776 772 771 771 773 773 771 771 773 775 773 772 773 772 774 777 776 777 782 782 780 781 774 764 760 759 760 760 758 756 754 754 763 770 770 778 791 794 789 782 771 761 758 759 759 755 752 755 758 759 765 769 776 788 789 784 780 761 744 744 743 744 746 741 740 745 745 744 744 744 746 748 749 751
774 778 779 774 769 772 779 782 784 787 786 786 787 787 786 783 777 771 771 775 775 772 775 777 774 774 775 776 778 781 780 778 780 782 782 783 777 768 761 759 759 758 754 750 748 752 762 768 768 772 778 781 778 771 765 762 761 760 760 758 755 755 754 755 765 771 772 783 785 773 768 762 748 743 743 744 746 742 739 742 743 743 744 745 747 749 749 750
778 786 791 786 781 782 783 783 787 789 786 787 790 792 793 792 785 778 774 776 778 776 777 779 778 781 784 783 783 787 787 783 782 784 784 783 779 771 762 758 759 758 754 750 749 753 762 768 771 770 767 768 768 763 762 763 761 758 759 759 757 755 753 755 763 766 767 778 780 766 764 767 752 741 742 742 743 742 740 739 740 741 744 745 747 748 749 749
783 791 795 793 792 794 793 789 790 791 787 786 790 794 797 795 792 790 785 780 780 780 781 784 785 787 788 786 786 794 795 788 786 788 787 784 782 776 767 761 759 757 756 756 753 757 767 771 769 768 764 763 766 765 762 760 759 759 758 757 757 755 754 755 759 761 762 768 769 763 765 764 749 739 739 736 735 736 736 737 739 741 743 745 747 748 748 749
788 793 795 793 795 798 798 794 792 792 791 790 793 797 800 800 797 795 790 786 787 786 786 792 794 791 790 787 787 798 802 796 797 796 790 788 788 783 777 771 764 758 758 762 759 759 768 771 768 769 766 761 763 766 763 759 759 759 757 757 759 756 753 753 756 757 758 760 760 761 764 756 743 738 735 731 733 735 735 738 740 740 742 745 747 748 748 748
793 797 797 794 796 797 797 795 794 793 794 796 798 800 802 803 802 798 792 791 796 795 792 796 797 792 792 792 791 799 802 800 804 801 792 793 793 786 783 780 771 764 763 766 765 762 767 771 769 768 769 764 761 761 762 763 763 761 759 759 760 758 755 755 756 757 759 759 758 761 761 750 739 739 738 734 734 735 735 737 737 738 741 744 746 748 747 747
798 800 799 797 798 800 799 798 798 798 800 802 804 803 803 804 803 800 796 793 796 798 796 798 797 792 792 793 793 796 796 796 800 796 789 792 792 784 783 780 774 773 770 768 768 765 768 773 769 770 776 772 764 763 763 761 762 763 761 758 758 759 757 756 755 754 753 754 756 761 759 747 738 740 741 738 735 733 734 735 735 738 741 742 744 746 745 745
799 800 800 798 800 804 805 803 801 801 805 807 805 803 805 805 802 800 798 795 793 795 796 796 795 793 793 795 794 793 792 791 790 786 782 784 782 779 779 776 774 776 774 771 770 768 769 772 770 776 783 777 769 769 763 760 770 773 760 751 751 753 754 754 753 750 749 749 753 755 750 742 741 742 741 739 737 734 732 731 731 735 739 740 741 742 742 742